CDT,Max TemperatureF,Mean TemperatureF,Min TemperatureF,Max Dew PointF,MeanDew PointF,Min DewpointF,Max Humidity, Mean Humidity, Min Humidity, Max Sea Level PressureIn, Mean Sea Level PressureIn, Min Sea Level PressureIn, Max VisibilityMiles, Mean VisibilityMiles, Min VisibilityMiles, Max Wind SpeedMPH, Mean Wind SpeedMPH, Max Gust SpeedMPH,PrecipitationIn, CloudCover, Events, WindDirDegrees
2012-3-1,80,71,62,68,64,61,94,80,61,29.96,29.86,29.71,10,10,4,17,5,22,0.00,7,,193
2012-3-2,78,70,62,68,60,41,88,70,31,29.78,29.72,29.68,10,10,8,16,11,22,0.14,6,Thunderstorm,240
2012-3-3,62,55,48,37,30,21,54,38,22,30.06,29.98,29.82,10,10,10,16,10,23,0.00,3,,16
2012-3-4,69,50,32,34,29,27,87,50,20,30.24,30.18,30.14,10,10,10,14,3,17,0.00,0,,255
2012-3-5,77,57,37,43,36,30,87,47,22,30.39,30.30,30.23,10,10,10,15,3,16,0.00,0,,192
2012-3-6,73,60,48,54,48,39,93,65,41,30.30,30.23,30.12,10,10,10,23,9,34,0.00,2,,168
2012-3-7,75,68,62,64,58,54,88,68,53,30.13,30.07,30.01,10,10,4,22,12,30,0.07,8,,165
2012-3-8,75,66,57,68,65,54,94,83,73,30.10,30.03,29.99,10,10,4,18,9,24,1.30,8,Thunderstorm,167
2012-3-9,51,46,42,46,40,36,87,77,58,30.47,30.32,30.20,10,10,5,15,8,23,0.71,7,Thunderstorm,31
2012-3-10,60,55,50,48,40,36,77,59,52,30.32,30.25,30.15,10,10,9,10,6,,0.02,8,,83
2012-3-11,62,58,53,63,57,48,100,90,77,30.13,30.05,29.97,10,8,0,15,8,18,1.69,8,Thunderstorm,154
2012-3-12,78,66,53,63,58,52,94,78,47,30.13,30.07,30.03,10,8,0,13,4,,0.01,4,,206
2012-3-13,80,72,64,68,65,63,94,81,61,30.19,30.13,30.08,10,8,2,13,7,17,0.00,6,,181
2012-3-14,80,72,64,66,64,63,94,77,54,30.21,30.15,30.10,10,9,5,15,8,20,0.00,6,,170
2012-3-15,80,74,68,66,65,63,88,75,54,30.23,30.17,30.10,10,10,9,14,8,22,0.00,6,,178
2012-3-16,80,72,64,64,63,61,94,73,51,30.18,30.13,30.06,10,10,8,17,8,21,0.00,5,,177
2012-3-17,82,75,68,66,63,61,88,72,48,30.13,30.08,30.01,10,10,10,20,9,26,0.00,4,,176
2012-3-18,80,73,66,66,65,63,94,75,57,30.09,30.04,29.98,10,10,3,21,10,26,0.00,5,,165
2012-3-19,80,76,71,66,64,63,83,71,54,29.96,29.87,29.77,10,10,10,24,14,36,0.00,6,,164
2012-3-20,73,65,57,64,58,54,94,84,69,29.88,29.77,29.69,10,9,5,17,10,29,1.64,7,Thunderstorm,116
2012-3-21,69,60,51,54,48,39,94,68,35,29.96,29.87,29.81,10,9,1,16,6,25,0.02,5,,204
2012-3-22,78,62,46,55,48,43,87,59,29,29.98,29.90,29.85,10,10,10,21,7,26,0.02,0,,179
2012-3-23,78,62,46,54,46,43,87,60,36,30.06,30.01,29.95,10,10,10,9,4,,0.00,0,,310
2012-3-24,82,64,46,54,49,43,87,67,37,30.07,30.03,29.98,10,10,7,8,2,,0.00,0,,12
2012-3-25,82,65,48,57,52,45,87,60,37,30.10,30.06,30.00,10,10,10,6,1,,0.00,0,,11
2012-3-26,82,65,50,61,54,46,87,66,39,30.12,30.08,29.99,10,10,7,10,2,,0.00,0,,172
2012-3-27,80,68,55,61,56,52,88,62,45,30.11,30.05,30.03,10,9,4,15,4,20,0.00,0,,172
2012-3-28,78,66,55,64,58,52,94,73,50,30.12,30.06,29.97,10,8,2,12,4,,0.00,1,,160
2012-3-29,71,68,64,66,63,61,94,87,73,30.00,29.95,29.89,10,8,3,8,3,,0.25,6,Thunderstorm,133
2012-3-30,78,71,64,68,63,61,94,83,65,29.92,29.88,29.82,10,9,3,10,5,,0.15,6,,178
2012-3-31,86,84,80,70,69,66,66,61,58,29.83,29.81,29.80,10,8,0,12,10,18,0.00,2,,161